STARLINK-33796, 63515

Orbit data source: Space-Track

STARLINK-33796, 63515 is a payload satellite owned by SpaceX/Seattle (US) in LEO that was launched on Mon, 07 Apr 2025 UTC via an FALCON 9 launch vehicle from the Air Force Western Test Range (AFWTR). Payload-class satellites include a variety of spacecraft equipped with specific instruments for various scientific and technological missions. These include communications satellites like Starlink; space stations such as the ISS; scientific satellites like the Hubble; Earth observation satellites from companies like Planet Labs, Umbra, and HawkEye 360; GPS; miniature CubeSats for education and research; and military/defense satellites.

Loading next visibility...
Identifier
63515, 2025-071Y
Orbit
LEO
Last TLE update
15 hours ago
Origin
Manufacturer
SpaceX/Seattle
Mission
Operational Commercial Communications
Bus & Motor
STARLINK V2MO, Unknown motor
Mass
575 kg wet, ~530 kg dry
Launch date (UTC)
2025-04-07 (1 month ago)
Launch vehicle
FALCON 9
Launch site
Air Force Western Test Range (AFWTR)
Object type
Payload
Rocket body
Debris
Shape & HBR
Box + 1 Pan, 29 m
Radar Cross Section
41.120 m², Large (>1 m²)

Expand to show TLE details & history

TLE from 15 hours ago
0 STARLINK-33796
1 63515U 25071Y   25129.25002315 -.01366184  00000-0 -24178-1 0  9996
2 63515  53.1597 116.9246 0001187  70.3989  62.7318 15.52708866  6117
Epoch: 2025-05-09T06:00Z
Definitive object data (Epoch: 2025-05-09T06:00:02Z)
Latitude
35.84581°
Longitude
-52.95569°
Altitude
411.192 km
Speed
7.669 km/s
True Right ascension
17h 37m 26s
True Declination
35° 40' 28"
Sunlit
Object was in full shadow at TLE epoch
Visualization TLE readout
Latitude
51.16994°
Longitude
-91.22156°
Altitude
419.656 km
Speed
7.666 km/s
Apparent Right ascension
16h 22m 59s
Apparent Declination
7° 51' 30"
Sunlit
Object is in full shadow
Visualization observer readout
Local Sidereal Time
05:31:11
Azimuth
22.176° NNE
Elevation
-39.692°
Doppler factor
1
Orbital elements
Apogee altitude
409.885 km
Perigee altitude
408.274 km
Semi-major axis
6,787.217 km
Eccentricity
0.0001187
Inclination
53.1597°
RAAN
116.9246°
Arg. of periapsis
70.3989°
True anomaly
62.74389°
Mean anomaly
62.7318°
Eccentric anomaly
62.73785°
Mean motion
3.88155 °/min
BSTAR
-0.024178
Orbital period
92.75 mins
Loading maneuver chart data...
Loading SW <> Apogee altitude chart data...
Loading historical data...
Loading historical data...
Loading historical data...
Loading historical data...
Loading historical data...
Loading historical data...
Loading historical data...

STARLINK-33796 Visibility forecast

Observer location: undefined°, undefined°

Span
Click to sort rows by Start time (UTC) header in descending order
Start Az.
Max El. time (UTC)
Max El. Az.
Max El.
End time (UTC)
End Az.
6 mins2025-05-10 01:41:54.849Z221.588° SW2025-05-10 01:44:54.849Z149.213° SSE43.371°2025-05-10 01:47:54.849Z54.476° ENE
5 mins2025-05-10 08:12:54.849Z327.601° NNW2025-05-10 08:14:54.849Z46.394° ENE37.812°2025-05-10 08:17:54.849Z113.777° SE
|